Location: Saratoga Springs
(43.0831°N, 73.7850°W)
Time: 17:15:31
(UTC-04:00)

Vanguard 2 - Pass Details

Date: 18 April 2024
Orbit: 553 x 2914 km, 32.9° (Epoch: 19 May)

Event Time Altitude Azimuth Distance (km) Brightness Sun altitude
Rises 06:55:53 0° 269° (W) 6,719 11.6 7.8°
Reaches altitude 10° 07:00:29 10° 265° (W) 5,741 11.4 8.6°
Maximum altitude 07:17:09 52° 197° (SSW) 3,055 10.6 11.7°
Drops below altitude 10° 07:29:45 10° 126° (SE) 4,434 12.4 14.0°
Sets 07:32:49 0° 121° (ESE) 5,149 12.8 14.5°
